Location: Boston
(42.3580°N, 71.0600°W)
Time: 15:14:17
(UTC-04:00)

Vanguard 2 - Visible Passes

Search period start: 22 June 2018 00:00
Search period end: 02 July 2018 00:00
Orbit: 553 x 2939 km, 32.9° (Epoch: 21 June)

Date Brightness Start Highest point End Pass type
(mag) Time Alt. Az. Time Alt. Az. Time Alt. Az.
22 Jun 10.1 02:12:16 12° SE 02:12:16 12° SE 02:13:18 10° SE visible
22 Jun 8.9 04:13:39 10° SW 04:18:42 24° S 04:22:32 10° ESE visible
23 Jun 9.7 02:28:51 18° SSE 02:28:51 18° SSE 02:32:30 10° ESE visible
23 Jun 8.7 04:31:12 10° SW 04:36:39 27° S 04:40:37 10° ESE visible
24 Jun 9.4 02:45:22 23° S 02:46:19 23° SSE 02:51:02 10° ESE visible
25 Jun 9.1 03:01:50 24° SSW 03:04:19 29° S 03:09:17 10° ESE visible
26 Jun 10.1 01:16:49 17° SE 01:16:49 17° SE 01:19:06 10° ESE visible
26 Jun 8.9 03:18:11 21° SW 03:22:18 33° S 03:27:22 10° ESE visible
27 Jun 9.7 01:33:06 26° SSE 01:33:06 26° SSE 01:37:39 10° ESE visible
27 Jun 8.8 03:34:27 16° SW 03:40:16 36° S 03:45:23 10° ESE visible
28 Jun 9.4 01:49:14 33° S 01:49:29 33° SSE 01:55:54 10° ESE visible
28 Jun 8.7 03:50:34 10° WSW 03:58:13 38° S 04:03:16 10° ESE visible
29 Jun 10.5 00:03:50 14° ESE 00:03:50 14° ESE 00:05:18 10° ESE visible
29 Jun 9.2 02:05:09 34° SSW 02:07:31 38° S 02:14:01 10° ESE visible
29 Jun 8.7 04:08:28 10° WSW 04:16:07 37° S 04:21:06 10° ESE visible
29 Jun 11.2 21:59:50 10° S 22:01:27 11° SSE 22:01:27 11° SSE visible
30 Jun 10.0 00:19:27 25° SE 00:19:27 25° SE 00:23:53 10° ESE visible
30 Jun 9.1 02:20:44 27° SW 02:25:31 42° S 02:32:02 10° ESE visible
30 Jun 8.7 04:26:38 10° WSW 04:33:58 34° SSW 04:38:50 10° SE visible
30 Jun 10.7 22:14:20 10° S 22:33:06 - ESE 22:22:14 19° SSE visible
01 Jul 9.7 00:21:45 10° SW 00:34:16 36° SSE 00:42:12 10° ESE visible
01 Jul 9.0 02:35:25 17° WSW 02:43:30 44° S 02:49:58 10° ESE visible
01 Jul 10.4 22:30:10 10° SSW 22:41:57 25° SSE 22:50:55 10° ESE visible
